• Em Portugal
  • Lista de países
  • Para 7 dias
  • Temperatura da água
  • Mapas de satélite
  • Mapa do tempo
  • Widgets de tempo
  • user-avatar
    Iniciar Sessão

    Previsão horária em Zahla

    Hoje, 22 Outubro, Segunda-feira

    Tempo Temperatura Precipitação Vento Pressão Humidade
    00:00 +18°C° 0 mm 1 m/s 675 mmHg 78%
    01:00 +18°C° 0 mm 1 m/s 675 mmHg 78%
    02:00 +16°C° 0 mm 1 m/s 675 mmHg 77%
    03:00 +16°C° 0 mm 1 m/s 675 mmHg 75%
    04:00 +16°C° 0 mm 1 m/s 675 mmHg 74%
    05:00 +16°C° 0 mm 1 m/s 675 mmHg 72%
    06:00 +18°C° 0 mm 1 m/s 675 mmHg 63%
    07:00 +20°C° 0 mm 1 m/s 676 mmHg 55%
    08:00 +21°C° 0 mm 1 m/s 677 mmHg 46%
    09:00 +21°C° 0 mm 2 m/s 677 mmHg 42%
    10:00 +23°C° 0 mm 2 m/s 677 mmHg 38%
    11:00 +24°C° 0 mm 2 m/s 677 mmHg 34%
    12:00 +25°C° 0 mm 2 m/s 677 mmHg 33%
    13:00 +25°C° 0 mm 2 m/s 677 mmHg 32%
    14:00 +26°C° 0 mm 2 m/s 676 mmHg 31%
    15:00 +25°C° 0.1 mm 2 m/s 676 mmHg 33%
    16:00 +24°C° 0.1 mm 2 m/s 676 mmHg 36%
    17:00 +24°C° 0.1 mm 2 m/s 675 mmHg 39%
    18:00 +23°C° 0 mm 2 m/s 675 mmHg 39%
    19:00 +23°C° 0 mm 2 m/s 675 mmHg 40%
    20:00 +21°C° 0 mm 2 m/s 675 mmHg 41%
    21:00 +21°C° 0.1 mm 2 m/s 675 mmHg 42%
    22:00 +21°C° 0.1 mm 2 m/s 675 mmHg 44%
    23:00 +20°C° 0.1 mm 2 m/s 675 mmHg 45%

    Amanhã, 23 Outubro, Terça-feira

    Tempo Temperatura Precipitação Vento Pressão Humidade
    00:00 +20°C° 0.2 mm 2 m/s 675 mmHg 49%
    01:00 +19°C° 0.2 mm 3 m/s 675 mmHg 52%
    02:00 +19°C° 0.2 mm 3 m/s 674 mmHg 55%
    03:00 +19°C° 0.3 mm 3 m/s 674 mmHg 56%
    04:00 +19°C° 0.3 mm 3 m/s 674 mmHg 58%
    05:00 +18°C° 0.3 mm 3 m/s 674 mmHg 60%
    06:00 +19°C° 0.4 mm 2 m/s 674 mmHg 55%
    07:00 +20°C° 0.4 mm 2 m/s 674 mmHg 51%
    08:00 +21°C° 0.4 mm 2 m/s 675 mmHg 47%
    09:00 +22°C° 0.3 mm 3 m/s 675 mmHg 44%
    10:00 +24°C° 0.3 mm 3 m/s 675 mmHg 41%
    11:00 +25°C° 0.3 mm 3 m/s 675 mmHg 38%
    12:00 +26°C° 0.2 mm 3 m/s 675 mmHg 37%
    13:00 +26°C° 0.2 mm 4 m/s 674 mmHg 37%
    14:00 +26°C° 0.2 mm 4 m/s 674 mmHg 36%
    15:00 +25°C° 0.1 mm 3 m/s 674 mmHg 40%
    16:00 +24°C° 0.1 mm 2 m/s 673 mmHg 44%
    17:00 +23°C° 0.1 mm 1 m/s 673 mmHg 47%
    18:00 +23°C° 0 mm 1 m/s 673 mmHg 50%
    19:00 +22°C° 0 mm 1 m/s 673 mmHg 52%
    20:00 +22°C° 0 mm 1 m/s 673 mmHg 54%
    21:00 +21°C° 0 mm 1 m/s 673 mmHg 54%
    22:00 +20°C° 0 mm 2 m/s 673 mmHg 54%
    23:00 +20°C° 0 mm 2 m/s 673 mmHg 53%

    Depois de amanhã, 24 Outubro, Quarta-feira

    Tempo Temperatura Precipitação Vento Pressão Humidade
    00:00 +20°C° 0 mm 2 m/s 673 mmHg 52%
    01:00 +20°C° 0 mm 2 m/s 673 mmHg 50%
    02:00 +20°C° 0 mm 2 m/s 673 mmHg 48%
    03:00 +19°C° 0 mm 2 m/s 672 mmHg 49%
    04:00 +19°C° 0 mm 2 m/s 672 mmHg 49%
    05:00 +19°C° 0 mm 1 m/s 672 mmHg 49%
    06:00 +19°C° 0 mm 2 m/s 672 mmHg 46%
    07:00 +20°C° 0 mm 2 m/s 673 mmHg 43%
    08:00 +21°C° 0 mm 3 m/s 673 mmHg 40%
    09:00 +22°C° 0 mm 4 m/s 673 mmHg 37%
    10:00 +23°C° 0 mm 4 m/s 673 mmHg 35%
    11:00 +25°C° 0 mm 5 m/s 673 mmHg 32%
    12:00 +25°C° 0 mm 5 m/s 673 mmHg 33%
    13:00 +25°C° 0 mm 5 m/s 673 mmHg 34%
    14:00 +25°C° 0 mm 5 m/s 672 mmHg 35%
    15:00 +23°C° 0 mm 4 m/s 672 mmHg 39%
    16:00 +22°C° 0 mm 3 m/s 671 mmHg 43%
    17:00 +21°C° 0 mm 2 m/s 671 mmHg 48%
    18:00 +21°C° 0 mm 2 m/s 671 mmHg 49%
    19:00 +20°C° 0 mm 2 m/s 671 mmHg 50%
    20:00 +20°C° 0 mm 2 m/s 671 mmHg 51%
    21:00 +19°C° 0 mm 2 m/s 671 mmHg 50%
    22:00 +19°C° 0 mm 2 m/s 671 mmHg 49%
    23:00 +19°C° 0 mm 3 m/s 671 mmHg 48%

    25 Outubro, Quinta-feira

    Tempo Temperatura Precipitação Vento Pressão Humidade
    00:00 +19°C° 0 mm 3 m/s 671 mmHg 48%
    01:00 +18°C° 0 mm 3 m/s 670 mmHg 48%
    02:00 +18°C° 0 mm 3 m/s 670 mmHg 47%
    03:00 +18°C° 0.1 mm 3 m/s 670 mmHg 49%
    04:00 +18°C° 0.1 mm 3 m/s 669 mmHg 51%
    05:00 +17°C° 0.1 mm 2 m/s 669 mmHg 53%
    06:00 +18°C° 0.3 mm 4 m/s 669 mmHg 52%
    07:00 +19°C° 0.3 mm 5 m/s 669 mmHg 52%
    08:00 +20°C° 0.3 mm 6 m/s 670 mmHg 51%
    09:00 +19°C° 1.6 mm 6 m/s 669 mmHg 56%
    10:00 +19°C° 1.6 mm 6 m/s 669 mmHg 61%
    11:00 +17°C° 1.6 mm 6 m/s 669 mmHg 66%
    12:00 +18°C° 0.5 mm 7 m/s 669 mmHg 63%
    13:00 +19°C° 0.5 mm 9 m/s 668 mmHg 60%
    14:00 +21°C° 0.5 mm 10 m/s 668 mmHg 57%
    15:00 +19°C° 0.4 mm 9 m/s 668 mmHg 64%
    16:00 +17°C° 0.4 mm 9 m/s 668 mmHg 71%
    17:00 +16°C° 0.4 mm 8 m/s 668 mmHg 77%
    18:00 +16°C° 0.4 mm 8 m/s 668 mmHg 79%
    19:00 +15°C° 0.4 mm 8 m/s 668 mmHg 80%
    20:00 +15°C° 0.4 mm 8 m/s 669 mmHg 82%
    21:00 +15°C° 0.6 mm 8 m/s 669 mmHg 82%
    22:00 +15°C° 0.6 mm 8 m/s 669 mmHg 82%
    23:00 +15°C° 0.6 mm 7 m/s 669 mmHg 83%

    26 Outubro, Sexta-feira

    Tempo Temperatura Precipitação Vento Pressão Humidade
    00:00 +15°C° 0.2 mm 7 m/s 669 mmHg 81%
    01:00 +14°C° 0.2 mm 7 m/s 669 mmHg 80%
    02:00 +14°C° 0.2 mm 7 m/s 669 mmHg 79%
    03:00 +12°C° 0.1 mm 8 m/s 670 mmHg 79%
    04:00 +12°C° 0.1 mm 8 m/s 670 mmHg 79%
    05:00 +12°C° 0.1 mm 8 m/s 670 mmHg 80%
    06:00 +12°C° 0.1 mm 8 m/s 670 mmHg 77%
    07:00 +12°C° 0.1 mm 8 m/s 671 mmHg 74%
    08:00 +12°C° 0.1 mm 8 m/s 671 mmHg 71%
    09:00 +12°C° 0.3 mm 7 m/s 672 mmHg 73%
    10:00 +12°C° 0.3 mm 7 m/s 672 mmHg 75%
    11:00 +13°C° 0.3 mm 6 m/s 673 mmHg 77%
    12:00 +13°C° 0.1 mm 6 m/s 673 mmHg 72%
    13:00 +13°C° 0.1 mm 5 m/s 674 mmHg 68%
    14:00 +13°C° 0.1 mm 5 m/s 674 mmHg 63%
    15:00 +13°C° 0 mm 4 m/s 674 mmHg 62%
    16:00 +12°C° 0 mm 3 m/s 675 mmHg 62%
    17:00 +13°C° 0 mm 2 m/s 675 mmHg 61%
    18:00 +12°C° 0 mm 2 m/s 675 mmHg 62%
    19:00 +12°C° 0 mm 2 m/s 676 mmHg 62%
    20:00 +10°C° 0 mm 2 m/s 676 mmHg 63%
    21:00 +10°C° 0 mm 2 m/s 676 mmHg 62%
    22:00 +10°C° 0 mm 2 m/s 677 mmHg 61%
    23:00 +10°C° 0 mm 2 m/s 677 mmHg 59%

    27 Outubro, Sábado

    Tempo Temperatura Precipitação Vento Pressão Humidade
    00:00 +10°C° 0 mm 2 m/s 677 mmHg 58%
    01:00 +9°C° 0 mm 2 m/s 677 mmHg 57%
    02:00 +9°C° 0 mm 2 m/s 677 mmHg 56%
    03:00 +9°C° 0 mm 2 m/s 677 mmHg 55%
    04:00 +9°C° 0 mm 2 m/s 677 mmHg 55%
    05:00 +9°C° 0 mm 2 m/s 677 mmHg 54%
    06:00 +10°C° 0 mm 2 m/s 678 mmHg 51%
    07:00 +12°C° 0 mm 2 m/s 679 mmHg 48%
    08:00 +14°C° 0 mm 2 m/s 679 mmHg 45%
    09:00 +15°C° 0 mm 2 m/s 680 mmHg 40%
    10:00 +16°C° 0 mm 2 m/s 680 mmHg 35%
    11:00 +17°C° 0 mm 2 m/s 680 mmHg 30%
    12:00 +18°C° 0 mm 2 m/s 679 mmHg 28%
    13:00 +18°C° 0 mm 2 m/s 679 mmHg 26%
    14:00 +19°C° 0 mm 2 m/s 679 mmHg 24%
    15:00 +18°C° 0 mm 2 m/s 679 mmHg 26%
    16:00 +17°C° 0 mm 3 m/s 679 mmHg 28%
    17:00 +17°C° 0 mm 3 m/s 679 mmHg 30%
    18:00 +16°C° 0 mm 3 m/s 679 mmHg 29%
    19:00 +16°C° 0 mm 2 m/s 679 mmHg 29%
    20:00 +15°C° 0 mm 2 m/s 679 mmHg 29%
    21:00 +15°C° 0 mm 2 m/s 678 mmHg 28%
    22:00 +15°C° 0 mm 2 m/s 678 mmHg 27%
    23:00 +14°C° 0 mm 2 m/s 678 mmHg 26%

    28 Outubro, Domingo

    Tempo Temperatura Precipitação Vento Pressão Humidade
    00:00 +14°C° 0 mm 2 m/s 678 mmHg 28%
    01:00 +14°C° 0 mm 2 m/s 678 mmHg 31%
    02:00 +14°C° 0 mm 2 m/s 678 mmHg 33%
    03:00 +14°C° 0 mm 2 m/s 678 mmHg 36%
    04:00 +14°C° 0 mm 2 m/s 678 mmHg 40%
    05:00 +13°C° 0 mm 3 m/s 678 mmHg 43%
    06:00 +14°C° 0 mm 3 m/s 678 mmHg 42%
    07:00 +16°C° 0 mm 3 m/s 679 mmHg 41%
    08:00 +17°C° 0 mm 3 m/s 679 mmHg 39%
    09:00 +18°C° 0 mm 3 m/s 679 mmHg 38%
    10:00 +20°C° 0 mm 3 m/s 679 mmHg 36%
    11:00 +21°C° 0 mm 3 m/s 679 mmHg 35%
    12:00 +21°C° 0 mm 3 m/s 679 mmHg 34%
    13:00 +21°C° 0 mm 4 m/s 679 mmHg 34%
    14:00 +22°C° 0 mm 4 m/s 678 mmHg 33%
    15:00 +21°C° 0 mm 4 m/s 678 mmHg 34%
    16:00 +20°C° 0 mm 3 m/s 678 mmHg 34%
    17:00 +19°C° 0 mm 3 m/s 678 mmHg 35%
    18:00 +19°C° 0 mm 3 m/s 678 mmHg 35%
    19:00 +18°C° 0 mm 3 m/s 678 mmHg 34%
    20:00 +18°C° 0 mm 3 m/s 678 mmHg 34%
    21:00 +18°C° 0 mm 3 m/s 678 mmHg 35%
    22:00 +17°C° 0 mm 3 m/s 677 mmHg 35%
    23:00 +17°C° 0 mm 3 m/s 677 mmHg 36%
    Mostrar mais